User: anonymous   Login
Location: Fort Frances
(48.6170°N, 93.4170°W)
Time: 13:10:29
(UTC-05:00)
Language:

Iridium 53 - Orbit

View from above orbital plane
View from above orbital plane
View from above satellite
View from above satellite

Ground track
Ground track

The orbit data is extracted from the following two-line orbital elements,

1 25173U 98010E   16148.52792888 -.00000014  00000-0 -11921-4 0  9990
2 25173  86.3960 151.5871 0002254  83.3963 276.7489 14.34217438956498
Epoch (UTC): 27 May 2016 12:40:13
Eccentricity: 0.0002254
inclination: 86.3960°
perigee height: 776 km
apogee height: 779 km
right ascension of ascending node: 151.5871°
argument of perigee: 83.3963°
revolutions per day: 14.34217438
mean anomaly at epoch: 276.7489°
orbit number at epoch: 95649

The dashed part of the orbit path shows where the satellite is in the earth's shadow,  

DLR